St. Johnsbury, VT

11:29 PM EST on February 19, 2018 (GMT -0500)
St. Johnsbury

Weather History for K1V4 - June, 2014

Change the Weather History Date:

Friday, June 6, 2014

  Actual Average Record
Temperature  
Mean Temperature 61 °F 63 °F  
Max Temperature 68 °F 75 °F 98 °F (1919)
Min Temperature 54 °F 51 °F 32 °F (1964)
Degree Days  
Heating Degree Days 4 4  
Month to date heating degree days 26  
Since 1 June heating degree days 26  
Since 1 July heating degree days 7730  
Cooling Degree Days 0 2  
Month to date cooling degree days 6 10  
Year to date cooling degree days 10 28  
Since 1 June cooling degree days 6 10  
Growing Degree Days 11 (Base 50)    
Moisture  
Dew Point 53 °F    
Average Humidity 78    
Maximum Humidity 100    
Minimum Humidity 55    
Precipitation  
Precipitation 0.00 in 0.13 in 1.32 in (1953)
Month to date precipitation 0.28 0.76  
Year to date precipitation 15.98 14.17  
Sea Level Pressure  
Sea Level Pressure 29.79 in    
Wind  
Wind Speed - (North)    
Max Wind Speed -    
Max Gust Speed -    
T = Trace of Precipitation, MM = Missing Value Source: NWS Daily Summary

Daily Weather History Graph

Daily Weather History Graph

Search for Another Location

Airport or City:

Trip Planner

Search our weather history database for the weather conditions in past years. The results will help you decide how hot, cold, wet, or windy it might be!

Date:

Astronomy

Jun. 06, 2014 Rise Set
Actual Time 5:04 AM EDT 8:29 PM EDT
Civil Twilight 4:28 AM EDT 9:05 PM EDT
Nautical Twilight 3:41 AM EDT 9:53 PM EDT
Astronomical Twilight 2:41 AM EDT 10:53 PM EDT
Moon 1:31 PM EDT (6/6) 1:10 AM EDT (6/6)
Length of Visible Light 16h 37m
Length of Day
15h 24m
First Quarter, 58% of the Moon is Illuminated
Jun 6
First Quarter
Jun 13
Full
Jun 19
Last Quarter
Jun 27
New
Jul 5
First Quarter

Hourly Weather History & Observations

Time (EDT) Temp. Dew Point Humidity Pressure Visibility Wind Dir Wind Speed Gust Speed Precip Events Conditions
12:54 AM 57.0 °F 55.0 °F 93% 29.71 in - North - - N/A   Unknown
1:54 AM 55.9 °F 54.0 °F 93% 29.70 in - North - - N/A   Unknown
2:54 AM 55.9 °F 54.0 °F 93% 29.71 in - North - - N/A   Unknown
3:54 AM 55.0 °F 53.1 °F 93% 29.71 in - North - - N/A   Unknown
4:54 AM 54.0 °F 53.1 °F 97% 29.72 in - North - - N/A   Unknown
5:54 AM 54.0 °F 53.1 °F 97% 29.75 in - North - - N/A   Unknown
6:54 AM 55.0 °F 53.1 °F 93% 29.77 in - North - - N/A   Unknown
7:54 AM 57.0 °F 53.1 °F 87% 29.78 in - North - - N/A   Unknown
8:54 AM 59.0 °F 53.1 °F 81% 29.78 in - North - - N/A   Unknown
9:54 AM 61.0 °F 53.1 °F 75% 29.78 in - North - - N/A   Unknown
11:54 AM 61.0 °F 54.0 °F 78% 29.79 in - North - - N/A   Unknown
12:54 PM 64.0 °F 52.0 °F 65% 29.79 in - North - - N/A   Unknown
1:54 PM 66.0 °F 52.0 °F 60% 29.79 in - North - - N/A   Unknown
2:54 PM 68.0 °F 52.0 °F 56% 29.78 in - North - - N/A   Unknown
3:54 PM 64.9 °F 52.0 °F 63% 29.81 in - North - - N/A   Unknown
4:54 PM 68.0 °F 53.1 °F 59% 29.80 in - North - - N/A   Unknown
5:54 PM 66.9 °F 53.1 °F 61% 29.81 in - North - - N/A   Unknown
6:54 PM 66.9 °F 52.0 °F 59% 29.82 in - North - - N/A   Unknown
7:54 PM 64.9 °F 53.1 °F 65% 29.84 in - North - - N/A   Unknown
8:54 PM 61.0 °F 54.0 °F 78% 29.85 in - North - - N/A   Unknown
9:54 PM 57.9 °F 54.0 °F 87% 29.86 in - North - - N/A   Unknown
10:54 PM 55.9 °F 53.1 °F 90% 29.87 in - North - - N/A   Unknown
11:54 PM 55.0 °F 53.1 °F 93% 29.88 in - North - - N/A   Unknown